Weather History for LFRJ - September, 2013

Change the Weather History Date:

Wednesday, September 4, 2013

  Actual Average (LFRB) Record (LFRB)
Temperature  
Mean Temperature 63 °F -  
Max Temperature 80 °F 67 °F 84 °F (2013)
Min Temperature 46 °F 53 °F 44 °F (2000)
Degree Days  
Heating Degree Days 2    
Growing Degree Days 13 (Base 50)    
Moisture  
Dew Point 54 °F    
Average Humidity 78    
Maximum Humidity 100    
Minimum Humidity 42    
Precipitation  
Precipitation 0.00 in - - ()
Sea Level Pressure  
Sea Level Pressure 30.10 in    
Wind  
Wind Speed 5 mph ()    
Max Wind Speed 10 mph    
Max Gust Speed -    
Visibility 3.7 miles    
Events Fog    
Averages and records for this station are not official NWS values.
T = Trace of Precipitation, MM = Missing Value Source: Averaged Metar Reports

Daily Weather History Graph

Daily Weather History Graph

Search for Another Location

Airport or City:

Trip Planner

Search our weather history database for the weather conditions in past years. The results will help you decide how hot, cold, wet, or windy it might be!

Date:

Astronomy

Sep. 04, 2013 Rise Set
Actual Time 7:38 AM CEST 8:52 PM CEST
Civil Twilight 7:05 AM CEST 9:24 PM CEST
Nautical Twilight 6:26 AM CEST 10:03 PM CEST
Astronomical Twilight 5:44 AM CEST 10:44 PM CEST
Moon 6:35 AM CEST (9/4) 8:02 PM CEST (9/4)
Length of Visible Light 14h 18m
Length of Day
13h 14m
Waning Crescent, 1% of the Moon is Illuminated
Sep 4
Waning Crescent
Sep 5
New
Sep 12
First Quarter
Sep 19
Full
Sep 27
Last Quarter

Hourly Weather History & Observations

Time (CEST) Temp. Windchill Dew Point Humidity Pressure Visibility Wind Dir Wind Speed Gust Speed Precip Events Conditions
12:00 AM 57.2 °F - 53.6 °F 88% 30.24 in 0.1 mi East 6.9 mph - N/A Fog Fog
12:30 AM 53.6 °F - 51.8 °F 94% 30.24 in 0.2 mi ENE 5.8 mph - N/A Fog Fog
1:00 AM 53.6 °F - 51.8 °F 94% 30.24 in 0.1 mi ENE 5.8 mph - N/A Fog Fog
1:30 AM 53.6 °F - 51.8 °F 94% 30.21 in 0.1 mi East 5.8 mph - N/A Fog Fog
2:00 AM 53.6 °F - 51.8 °F 94% 30.21 in 0.3 mi East 5.8 mph - N/A Fog Fog
2:30 AM 53.6 °F - 51.8 °F 94% 30.21 in 0.2 mi East 6.9 mph - N/A Fog Fog
3:00 AM 53.6 °F - 50.0 °F 88% 30.21 in 6.2 mi East 5.8 mph - N/A   Unknown
3:30 AM 51.8 °F - 50.0 °F 94% 30.18 in 6.2 mi ESE 8.1 mph - N/A   Unknown
4:00 AM 53.6 °F - 50.0 °F 88% 30.18 in 6.2 mi ESE 8.1 mph - N/A   Unknown
4:30 AM 51.8 °F - 50.0 °F 94% 30.18 in 6.2 mi East 5.8 mph - N/A   Unknown
5:00 AM 50.0 °F - 46.4 °F 87% 30.18 in 0.3 mi ENE 4.6 mph - N/A Fog Fog
5:30 AM 53.6 °F - 53.6 °F 100% 30.15 in 0.1 mi East 5.8 mph - N/A Fog Fog
6:00 AM 48.2 °F - 44.6 °F 87% 30.15 in 0.1 mi ENE 4.6 mph - N/A Fog Fog
6:30 AM 53.6 °F - 51.8 °F 94% 30.15 in 0.6 mi East 4.6 mph - N/A Fog Fog
7:00 AM 46.4 °F 45.2 °F 44.6 °F 93% 30.15 in 0.2 mi ENE 3.5 mph - N/A Fog Fog
7:30 AM 48.2 °F - 46.4 °F 93% 30.15 in 0.2 mi East 3.5 mph - N/A Fog Fog
8:00 AM 48.2 °F - 48.2 °F 100% 30.15 in 0.2 mi ENE 3.5 mph - N/A Fog Fog
8:30 AM 50.0 °F - 48.2 °F 94% 30.15 in 3.1 mi NE 3.5 mph - N/A   Mist
9:00 AM 53.6 °F - 51.8 °F 94% 30.15 in 0.4 mi ENE 5.8 mph - N/A Fog Fog
9:30 AM 55.4 °F - 55.4 °F 100% 30.15 in 6.2 mi ENE 4.6 mph - N/A   Partly Cloudy
10:00 AM 59.0 °F - 55.4 °F 88% 30.15 in 6.2 mi ENE 5.8 mph - N/A   Unknown
10:30 AM 60.8 °F - 57.2 °F 88% 30.15 in 6.2 mi East 4.6 mph - N/A   Unknown
11:00 AM 66.2 °F - 57.2 °F 73% 30.12 in 6.2 mi East 3.5 mph - N/A   Unknown
11:30 AM 71.6 °F - 59.0 °F 64% 30.12 in 6.2 mi Variable 3.5 mph - N/A   Unknown
12:30 PM 75.2 °F - 55.4 °F 50% 30.12 in 6.2 mi NNE 4.6 mph - N/A   Unknown
1:00 PM 75.2 °F - 55.4 °F 50% 30.09 in 6.2 mi NNE 6.9 mph - N/A   Unknown
1:30 PM 77.0 °F - 55.4 °F 47% 30.09 in 6.2 mi Variable 4.6 mph - N/A   Unknown
2:00 PM 78.8 °F - 55.4 °F 44% 30.06 in 6.2 mi Variable 5.8 mph - N/A   Unknown
2:30 PM 78.8 °F - 57.2 °F 47% 30.06 in 6.2 mi NNE 4.6 mph - N/A   Unknown
3:00 PM 80.6 °F - 55.4 °F 42% 30.06 in 6.2 mi NE 4.6 mph - N/A   Unknown
3:30 PM 80.6 °F - 55.4 °F 42% 30.04 in 6.2 mi ENE 4.6 mph - N/A   Unknown
4:00 PM 80.6 °F - 55.4 °F 42% 30.04 in 6.2 mi NNE 4.6 mph - N/A   Unknown
4:30 PM 80.6 °F - 57.2 °F 45% 30.04 in 6.2 mi ENE 6.9 mph - N/A   Unknown
5:00 PM 78.8 °F - 59.0 °F 51% 30.01 in 6.2 mi North 10.4 mph - N/A   Unknown
5:30 PM 77.0 °F - 60.8 °F 57% 30.01 in 6.2 mi North 10.4 mph - N/A   Unknown
6:00 PM 75.2 °F - 60.8 °F 61% 30.01 in 6.2 mi NNE 9.2 mph - N/A   Unknown
6:30 PM 73.4 °F - 60.8 °F 65% 30.01 in 6.2 mi NNE 9.2 mph - N/A   Unknown
7:00 PM 71.6 °F - 60.8 °F 69% 30.01 in 6.2 mi North 8.1 mph - N/A   Unknown
7:30 PM 69.8 °F - 60.8 °F 73% 30.01 in 6.2 mi NNE 4.6 mph - N/A   Unknown
8:00 PM 69.8 °F - 60.8 °F 73% 30.01 in 6.2 mi NE 3.5 mph - N/A   Unknown
8:30 PM 66.2 °F - 59.0 °F 78% 30.01 in 5.6 mi North 3.5 mph - N/A   Unknown
9:00 PM 60.8 °F - 57.2 °F 88% 30.01 in 3.7 mi North 3.5 mph - N/A   Unknown
9:30 PM 59.0 °F - 57.2 °F 94% 30.01 in 1.6 mi NNE 3.5 mph - N/A   Mist
10:00 PM 59.0 °F - 57.2 °F 94% 30.01 in 0.6 mi ENE 3.5 mph - N/A Fog Fog
10:30 PM 57.2 °F - 57.2 °F 100% 30.01 in 0.1 mi East 4.6 mph - N/A Fog Fog
11:00 PM 57.2 °F - 55.4 °F 94% 30.01 in 0.1 mi East 4.6 mph - N/A Fog Fog
11:30 PM 57.2 °F - 55.4 °F 94% 30.01 in 0.1 mi North 3.5 mph - N/A Fog Fog